Погода в Луганвилле

Вануату     15°31′18″S   167°08′35″E
темп.,
°C
ветер,
м/с
пор.,
м/с
влажн.,
%
обл.,
%
осадки,
мм/ч
давл.,
гПа
погр.,
м
1 марта, пн
пн123:00+27юв4580100 0.2 1007600
02:00+26юв2377100 0.0 1005579
05:00+26ю2476100 0.0 1005569
08:00+28юв3470100 0.0 1007880
11:00+28вюв446776 0.0 10061031
14:00+28в446554 0.0 1004817
17:00+28всв336773 0.0 1004849
20:00+27в227092 0.0 1007680
2 марта, вт
вт223:00+27вюв237262 0.0 1007645
02:00+27юв2372100 0.0 1006530
05:00+26юв2373100 0.0 1005514
08:00+28в236771 0.0 1007728
11:00+28вюв446676 0.0 1006803
14:00+29в446842 0.0 1005876
17:00+28в447137 0.0 1004811
20:00+27всв347958 0.2 1006470
3 марта, ср
ср323:00+27с698776 8.1 1007607
02:00+27с71084100 14.3 1005794
05:00+27ссв4784100 21.4 1004626
08:00+28ссв678496 5.1 1006710
11:00+29св577998 5.4 1006769
14:00+29сз3478100 3.8 1004602
17:00+28с3682100 10.9 1004463
20:00+27ссз6985100 6.1 1006520
4 марта, чт
чт423:00+27ссз5882100 10.4 1007487
02:00+27ссз6981100 0.8 1005609
05:00+27с61078100 0.9 1005747
08:00+28с81175100 1.3 10071054
11:00+27ссз91385100 5.1 1007974
14:00+27с101585100 4.8 10041071
17:00+28с101478100 5.4 10031255
20:00+28ссз101581100 1.6 10051182
5 марта, пт
пт523:00+27ссз101586100 6.4 10051095
02:00+27ссз111786100 3.3 10031234
05:00+27ссз111588100 4.6 1003953
08:00+26с142289100 7.7 10041499
11:00+27ссз81383100 14.6 10041090
14:00+27ссз81285100 1.3 1002851
17:00+27ссз101585100 3.9 10011154
20:00+27ссз101589100 2.4 1002872